Springfield, MO

8:34 AM CDT on May 26, 2017 (GMT -0500)
Springfield-Branson Regional

Weather History for KSGF - November, 2014

Change the Weather History Date:

Tuesday, November 4, 2014

  Actual Average Record
Temperature  
Mean Temperature 52 °F 51 °F  
Max Temperature 61 °F 62 °F 80 °F (1978)
Min Temperature 43 °F 40 °F 10 °F (1991)
Degree Days  
Heating Degree Days 13 14  
Month to date heating degree days 61 53  
Since 1 July heating degree days 293 361  
Cooling Degree Days 0 0  
Month to date cooling degree days 0 0  
Year to date cooling degree days 1470 1387  
Growing Degree Days 3 (Base 50)    
Moisture  
Dew Point 49 °F    
Average Humidity 86    
Maximum Humidity 100    
Minimum Humidity 72    
Precipitation  
Precipitation 1.48 in 0.14 in 2.32 in (1994)
Month to date precipitation 1.48 0.54  
Year to date precipitation 36.00 38.85  
Snow  
Snow 0.00 in - - ()
Month to date snowfall 0.0  
Since 1 July snowfall 0.0  
Since 1 September snowfall 0.0  
Snow Depth 0.00 in    
Sea Level Pressure  
Sea Level Pressure 30.14 in    
Wind  
Wind Speed 5 mph (NW)    
Max Wind Speed 22 mph    
Max Gust Speed 26 mph    
Visibility 6 miles    
Events Rain    
T = Trace of Precipitation, MM = Missing Value Source: NWS Daily Summary

Daily Weather History Graph

Daily Weather History Graph

Search for Another Location

Airport or City:

Trip Planner

Search our weather history database for the weather conditions in past years. The results will help you decide how hot, cold, wet, or windy it might be!

Date:

Astronomy

Nov. 04, 2014 Rise Set
Actual Time 6:41 AM CST 5:12 PM CST
Civil Twilight 6:13 AM CST 5:39 PM CST
Nautical Twilight 5:43 AM CST 6:10 PM CST
Astronomical Twilight 5:12 AM CST 6:41 PM CST
Moon 3:56 PM CST (11/4) 4:03 AM CST (11/4)
Length of Visible Light 11h 25m
Length of Day
10h 31m
Waxing Gibbous, 94% of the Moon is Illuminated
Nov 4
Waxing Gibbous
Nov 6
Full
Nov 14
Last Quarter
Nov 22
New
Nov 29
First Quarter

Hourly Weather History & Observations

Time (CST) Temp. Windchill Dew Point Humidity Pressure Visibility Wind Dir Wind Speed Gust Speed Precip Events Conditions
12:36 AM 57.9 °F - 54.0 °F 87% 30.08 in 7.0 mi WNW 4.6 mph - 0.01 in Rain Light Rain
12:52 AM 57.0 °F - 55.0 °F 93% 30.06 in 6.0 mi Calm Calm - 0.02 in Rain Light Rain
1:45 AM 57.0 °F - 55.0 °F 93% 30.06 in 2.5 mi SE 4.6 mph - 0.09 in Rain Heavy Rain
1:52 AM 55.9 °F - 55.0 °F 97% 30.04 in 2.5 mi SE 4.6 mph - 0.13 in Rain Heavy Rain
2:03 AM 55.9 °F - 55.0 °F 97% 30.06 in 3.0 mi Calm Calm - 0.07 in Rain Rain
2:12 AM 55.9 °F - 54.0 °F 93% 30.07 in 2.5 mi NW 4.6 mph - 0.09 in Rain Heavy Rain
2:22 AM 55.9 °F - 55.0 °F 97% 30.07 in 1.5 mi NW 6.9 mph - 0.20 in Rain Heavy Rain
2:32 AM 55.9 °F - 55.0 °F 97% 30.07 in 1.5 mi NNW 5.8 mph - 0.29 in Rain Heavy Rain
2:40 AM 57.0 °F - 55.0 °F 93% 30.07 in 1.8 mi North 4.6 mph - 0.35 in Rain Heavy Rain
2:50 AM 57.2 °F - 55.4 °F 94% 30.07 in 2.0 mi NE 4.6 mph - 0.41 in Rain Rain
2:52 AM 57.0 °F - 55.0 °F 93% 30.05 in 2.0 mi NE 4.6 mph - 0.43 in Rain Heavy Rain
3:07 AM 55.9 °F - 55.9 °F 100% 30.08 in 1.5 mi Calm Calm - 0.16 in Rain Heavy Rain
3:21 AM 57.0 °F - 55.0 °F 93% 30.07 in 2.0 mi Variable 4.6 mph - 0.28 in Rain Heavy Rain
3:31 AM 57.0 °F - 55.9 °F 96% 30.07 in 2.0 mi South 5.8 mph - 0.36 in Rain Heavy Rain
3:44 AM 57.0 °F - 55.9 °F 96% 30.07 in 3.0 mi South 5.8 mph - 0.42 in Rain Heavy Rain
3:52 AM 57.0 °F - 55.9 °F 96% 30.06 in 3.0 mi South 4.6 mph - 0.46 in Rain Rain
4:02 AM 57.0 °F - 55.9 °F 96% 30.07 in 3.0 mi South 6.9 mph - 0.03 in Rain Rain
4:24 AM 57.0 °F - 55.0 °F 93% 30.07 in 5.0 mi South 5.8 mph - 0.07 in Rain Light Rain
4:52 AM 57.0 °F - 55.9 °F 96% 30.06 in 6.0 mi South 5.8 mph - 0.12 in Rain Light Rain
5:16 AM 57.0 °F - 55.9 °F 96% 30.08 in 6.0 mi WSW 5.8 mph - 0.01 in Rain Light Rain
5:47 AM 53.6 °F - 51.8 °F 94% 30.10 in 7.0 mi NW 10.4 mph - 0.05 in Rain Rain
5:52 AM 53.1 °F - 51.1 °F 93% 30.09 in 6.0 mi NW 10.4 mph - 0.06 in Rain Rain
6:01 AM 52.0 °F - 50.0 °F 93% 30.10 in 7.0 mi NW 8.1 mph - 0.01 in Rain Light Rain
6:15 AM 52.0 °F - 50.0 °F 93% 30.10 in 6.0 mi NW 8.1 mph - 0.02 in Rain Light Rain
6:42 AM 51.1 °F - 48.9 °F 92% 30.09 in 6.0 mi NNW 4.6 mph - 0.04 in Rain Light Rain
6:52 AM 51.1 °F - 48.9 °F 92% 30.08 in 7.0 mi NNW 4.6 mph - 0.04 in Rain Light Rain
7:21 AM 51.1 °F - 48.9 °F 92% 30.12 in 5.0 mi NW 9.2 mph - 0.00 in Rain Light Rain
7:52 AM 50.0 °F - 48.9 °F 96% 30.14 in 5.0 mi WNW 6.9 mph - 0.01 in Rain Light Rain
8:31 AM 50.0 °F - 48.9 °F 96% 30.16 in 5.0 mi NW 4.6 mph - 0.01 in Rain Light Rain
8:52 AM 50.0 °F - 48.0 °F 93% 30.15 in 6.0 mi NNW 6.9 mph - 0.02 in Rain Light Rain
9:47 AM 50.0 °F - 48.2 °F 94% 30.18 in 6.0 mi NNW 9.2 mph - 0.03 in Rain Light Rain
9:52 AM 50.0 °F - 48.0 °F 93% 30.17 in 6.0 mi NNW 9.2 mph - 0.03 in Rain Light Rain
10:22 AM 48.9 °F - 46.9 °F 93% 30.19 in 3.0 mi NW 9.2 mph - 0.03 in Rain Rain
10:43 AM 48.9 °F - 46.9 °F 93% 30.18 in 5.0 mi NW 6.9 mph - 0.06 in Rain Light Rain
10:52 AM 48.9 °F - 46.9 °F 93% 30.18 in 5.0 mi NW 6.9 mph - 0.07 in Rain Light Rain
11:16 AM 48.9 °F - 46.9 °F 93% 30.20 in 5.0 mi NW 9.2 mph - 0.02 in Rain Rain
11:44 AM 48.9 °F - 46.0 °F 90% 30.18 in 5.0 mi North 6.9 mph - 0.05 in Rain Light Rain
11:52 AM 48.9 °F - 46.0 °F 90% 30.18 in 6.0 mi North 8.1 mph - 0.06 in Rain Light Rain
12:16 PM 48.0 °F - 46.0 °F 93% 30.17 in 7.0 mi North 11.5 mph - 0.01 in Rain Light Rain
12:52 PM 48.0 °F - 45.0 °F 89% 30.17 in 8.0 mi NNW 9.2 mph - 0.02 in Rain Light Rain
1:01 PM 48.0 °F - 45.0 °F 89% 30.16 in 9.0 mi Calm Calm - 0.01 in Rain Light Rain
1:47 PM 48.2 °F - 46.4 °F 93% 30.17 in 10.0 mi NNW 5.8 mph - 0.01 in   Overcast
1:52 PM 48.0 °F - 46.0 °F 93% 30.17 in 10.0 mi NNW 9.2 mph - 0.01 in   Overcast
2:42 PM 48.0 °F - 45.0 °F 89% 30.17 in 10.0 mi NNW 10.4 mph - N/A   Overcast
2:52 PM 48.0 °F - 45.0 °F 89% 30.18 in 10.0 mi NW 8.1 mph - N/A   Overcast
3:10 PM 48.0 °F - 45.0 °F 89% 30.19 in 10.0 mi NW 6.9 mph - N/A   Overcast
3:49 PM 48.2 °F - 44.6 °F 87% 30.19 in 10.0 mi NW 8.1 mph - N/A   Mostly Cloudy
3:52 PM 48.0 °F - 45.0 °F 89% 30.19 in 10.0 mi NW 11.5 mph - N/A   Mostly Cloudy
4:13 PM 46.9 °F - 44.1 °F 90% 30.20 in 10.0 mi NNW 9.2 mph - N/A   Overcast
4:22 PM 46.9 °F - 43.0 °F 86% 30.18 in 10.0 mi NNW 5.8 mph - N/A   Mostly Cloudy
4:33 PM 46.9 °F - 43.0 °F 86% 30.18 in 10.0 mi North 3.5 mph - N/A   Scattered Clouds
4:52 PM 46.9 °F - 43.0 °F 86% 30.20 in 10.0 mi NW 5.8 mph - N/A   Clear
5:52 PM 46.0 °F 44.8 °F 44.1 °F 93% 30.20 in 10.0 mi North 3.5 mph - N/A   Clear
6:52 PM 46.0 °F 44.8 °F 43.0 °F 89% 30.21 in 10.0 mi NNW 3.5 mph - N/A   Clear
7:52 PM 46.0 °F - 43.0 °F 89% 30.22 in 10.0 mi Calm Calm - N/A   Clear
8:52 PM 45.0 °F - 43.0 °F 93% 30.22 in 10.0 mi Calm Calm - N/A   Clear
9:52 PM 45.0 °F - 43.0 °F 93% 30.23 in 10.0 mi Calm Calm - N/A   Clear
10:52 PM 44.1 °F - 42.1 °F 93% 30.22 in 10.0 mi Calm Calm - N/A   Clear
11:52 PM 44.1 °F 42.5 °F 42.1 °F 93% 30.23 in 10.0 mi WNW 3.5 mph - N/A   Clear